�������l�o���
Date,Time,MP-1(��Sv/h),MP-2(��Sv/h),MP-3(��Sv/h),MP-4(��Sv/h),MP-5(��Sv/h),MP-6(��Sv/h),MP-7(��Sv/h),MP-8(��Sv/h),����,����(m/s),���J
2023/12/26,00:00,0.514,0.784,0.488,0.985,0.703,0.313,0.563,0.526,��,7.6,��
2023/12/26,00:10,0.515,0.781,0.488,0.984,0.704,0.315,0.561,0.527,���쐼,7.0,��
2023/12/26,00:20,0.514,0.783,0.489,0.985,0.706,0.314,0.564,0.527,��,7.6,��
2023/12/26,00:30,0.515,0.784,0.488,0.985,0.703,0.314,0.564,0.527,��,9.8,��
2023/12/26,00:40,0.515,0.781,0.488,0.986,0.704,0.314,0.564,0.526,��,8.1,��
2023/12/26,00:50,0.513,0.782,0.489,0.982,0.704,0.314,0.562,0.528,��,9.4,��
2023/12/26,01:00,0.515,0.782,0.489,0.987,0.702,0.314,0.563,0.528,��,10.3,��
2023/12/26,01:10,0.514,0.781,0.488,0.986,0.704,0.314,0.563,0.526,���쐼,9.3,��
2023/12/26,01:20,0.516,0.783,0.489,0.984,0.704,0.314,0.564,0.527,��,11.7,��
2023/12/26,01:30,0.515,0.782,0.488,0.986,0.703,0.313,0.566,0.527,��,11.8,��
2023/12/26,01:40,0.516,0.782,0.487,0.985,0.702,0.314,0.562,0.526,��,8.8,��
2023/12/26,01:50,0.514,0.782,0.488,0.984,0.703,0.314,0.564,0.527,��,8.4,��
2023/12/26,02:00,0.514,0.783,0.488,0.985,0.704,0.314,0.564,0.527,��,7.9,��
2023/12/26,02:10,0.514,0.781,0.487,0.986,0.703,0.313,0.563,0.526,��,7.8,��
2023/12/26,02:20,0.514,0.782,0.488,0.986,0.703,0.314,0.564,0.528,��,7.6,��
2023/12/26,02:30,0.513,0.781,0.489,0.982,0.704,0.315,0.564,0.526,��,7.0,��
2023/12/26,02:40,0.514,0.781,0.487,0.983,0.704,0.314,0.563,0.527,��,6.7,��
2023/12/26,02:50,0.515,0.782,0.489,0.987,0.702,0.313,0.563,0.527,��,5.4,��
2023/12/26,03:00,0.515,0.781,0.487,0.985,0.703,0.314,0.563,0.527,���쐼,6.0,��
2023/12/26,03:10,0.514,0.780,0.488,0.983,0.703,0.312,0.563,0.527,��,6.5,��
2023/12/26,03:20,0.515,0.782,0.488,0.985,0.703,0.313,0.562,0.528,���쐼,7.5,��
2023/12/26,03:30,0.515,0.781,0.488,0.985,0.702,0.314,0.563,0.526,���쐼,7.8,��
2023/12/26,03:40,0.515,0.781,0.488,0.986,0.702,0.313,0.561,0.527,���쐼,7.0,��
2023/12/26,03:50,0.514,0.781,0.489,0.984,0.702,0.314,0.562,0.527,���쐼,6.6,��
2023/12/26,04:00,0.515,0.782,0.489,0.984,0.703,0.314,0.563,0.526,���쐼,6.1,��
2023/12/26,04:10,0.515,0.781,0.488,0.983,0.702,0.314,0.563,0.528,���쐼,5.3,��
2023/12/26,04:20,0.515,0.783,0.487,0.984,0.703,0.313,0.562,0.527,��,5.4,��
2023/12/26,04:30,0.514,0.782,0.488,0.983,0.701,0.314,0.562,0.527,���쐼,4.8,��
2023/12/26,04:40,0.515,0.781,0.487,0.985,0.703,0.314,0.562,0.526,���쐼,4.2,��
2023/12/26,04:50,0.512,0.780,0.488,0.985,0.703,0.315,0.562,0.526,�쐼,4.4,��
2023/12/26,05:00,0.515,0.780,0.487,0.983,0.702,0.313,0.563,0.525,�쐼,4.3,��
2023/12/26,05:10,0.516,0.779,0.487,0.982,0.704,0.313,0.562,0.527,���쐼,5.7,��
2023/12/26,05:20,0.514,0.782,0.488,0.983,0.701,0.314,0.561,0.527,���쐼,5.3,��
2023/12/26,05:30,0.515,0.781,0.487,0.985,0.703,0.312,0.562,0.527,���쐼,4.8,��
2023/12/26,05:40,0.513,0.781,0.489,0.985,0.703,0.313,0.562,0.526,���쐼,3.2,��
2023/12/26,05:50,0.512,0.779,0.487,0.983,0.702,0.314,0.560,0.527,�쐼,2.3,��
2023/12/26,06:00,0.513,0.781,0.488,0.985,0.701,0.314,0.563,0.526,��쐼,2.6,��
2023/12/26,06:10,0.514,0.783,0.490,0.985,0.702,0.313,0.560,0.526,�쐼,4.1,��
2023/12/26,06:20,0.515,0.780,0.487,0.984,0.703,0.313,0.560,0.526,���쐼,3.3,��
2023/12/26,06:30,0.513,0.781,0.488,0.984,0.702,0.313,0.560,0.526,��,3.3,��
2023/12/26,06:40,0.513,0.781,0.486,0.984,0.701,0.314,0.562,0.526,��,2.5,��
2023/12/26,06:50,0.513,0.783,0.487,0.983,0.702,0.313,0.560,0.526,��,3.1,��
2023/12/26,07:00,0.514,0.781,0.487,0.983,0.703,0.312,0.560,0.525,��,5.0,��
2023/12/26,07:10,0.515,0.781,0.486,0.984,0.701,0.313,0.560,0.526,��,4.9,��
2023/12/26,07:20,0.513,0.780,0.488,0.985,0.700,0.312,0.561,0.524,���쐼,4.5,��
2023/12/26,07:30,0.515,0.781,0.487,0.982,0.702,0.314,0.561,0.526,��,3.5,��
2023/12/26,07:40,0.515,0.779,0.488,0.983,0.701,0.313,0.562,0.526,���쐼,2.9,��
2023/12/26,07:50,0.514,0.781,0.488,0.983,0.702,0.313,0.561,0.525,���쐼,3.4,��
2023/12/26,08:00,0.515,0.780,0.487,0.984,0.701,0.313,0.562,0.526,���쐼,3.6,��
2023/12/26,08:10,0.513,0.783,0.487,0.983,0.701,0.313,0.560,0.526,���쐼,4.7,��
2023/12/26,08:20,0.514,0.779,0.487,0.982,0.701,0.313,0.562,0.526,���쐼,2.6,��
2023/12/26,08:30,0.515,0.781,0.488,0.983,0.702,0.312,0.561,0.525,��,2.6,��
2023/12/26,08:40,0.514,0.782,0.488,0.983,0.701,0.313,0.563,0.526,��쐼,2.6,��
2023/12/26,08:50,0.515,0.782,0.487,0.984,0.703,0.312,0.561,0.528,��,3.0,��
2023/12/26,09:00,0.514,0.783,0.490,0.984,0.700,0.313,0.562,0.526,��,2.6,��
2023/12/26,09:10,0.515,0.782,0.487,0.985,0.701,0.314,0.562,0.525,��,2.3,��
2023/12/26,09:20,0.515,0.780,0.488,0.986,0.703,0.314,0.563,0.527,��,2.0,��
2023/12/26,09:30,0.516,0.780,0.486,0.985,0.700,0.312,0.562,0.526,��,2.2,��
2023/12/26,09:40,0.517,0.781,0.487,0.984,0.701,0.312,0.563,0.526,��,2.6,��
2023/12/26,09:50,0.516,0.781,0.486,0.985,0.702,0.313,0.560,0.523,��쓌,2.0,��
2023/12/26,10:00,0.517,0.781,0.489,0.983,0.702,0.314,0.560,0.527,��,1.1,��
2023/12/26,10:10,0.515,0.780,0.488,0.986,0.703,0.313,0.560,0.526,�쐼,1.7,��
2023/12/26,10:20,0.515,0.782,0.489,0.984,0.704,0.314,0.560,0.527,��,2.6,��
2023/12/26,10:30,0.516,0.782,0.489,0.985,0.702,0.315,0.558,0.527,���쐼,4.7,��
2023/12/26,10:40,0.517,0.779,0.487,0.985,0.705,0.314,0.561,0.527,���쐼,5.1,��
2023/12/26,10:50,0.514,0.782,0.489,0.984,0.704,0.313,0.561,0.526,��,6.6,��
2023/12/26,11:00,0.515,0.781,0.489,0.987,0.705,0.314,0.560,0.527,��,6.9,��
2023/12/26,11:10,0.517,0.780,0.489,0.986,0.704,0.315,0.560,0.525,��,7.5,��
2023/12/26,11:20,0.515,0.781,0.488,0.984,0.705,0.317,0.561,0.528,��,7.2,��
2023/12/26,11:30,0.516,0.781,0.489,0.985,0.706,0.314,0.562,0.526,��,7.1,��
2023/12/26,11:40,0.515,0.779,0.488,0.984,0.704,0.313,0.562,0.528,��,5.1,��
2023/12/26,11:50,0.517,0.783,0.487,0.985,0.704,0.315,0.562,0.526,��,6.1,��
2023/12/26,12:00,0.515,0.782,0.490,0.987,0.704,0.315,0.562,0.527,��,5.2,��
2023/12/26,12:10,0.515,0.781,0.489,0.988,0.705,0.315,0.562,0.528,���쐼,5.5,��
2023/12/26,12:20,0.516,0.782,0.490,0.985,0.706,0.315,0.563,0.529,��,7.3,��
2023/12/26,12:30,0.516,0.781,0.489,0.986,0.707,0.314,0.564,0.527,���쐼,6.9,��
2023/12/26,12:40,0.515,0.782,0.491,0.987,0.705,0.315,0.564,0.527,���쐼,6.1,��
2023/12/26,12:50,0.517,0.781,0.491,0.985,0.707,0.315,0.564,0.528,���쐼,6.2,��
2023/12/26,13:00,0.517,0.783,0.490,0.987,0.705,0.315,0.565,0.528,��,6.5,��
2023/12/26,13:10,0.515,0.781,0.490,0.986,0.706,0.316,0.565,0.526,���쐼,5.9,��
2023/12/26,13:20,0.515,0.782,0.488,0.988,0.705,0.316,0.564,0.526,�쐼,6.5,��
2023/12/26,13:30,0.517,0.784,0.489,0.987,0.705,0.315,0.565,0.526,��쐼,7.1,��
2023/12/26,13:40,0.517,0.781,0.490,0.988,0.705,0.316,0.564,0.527,��쐼,4.3,��
2023/12/26,13:50,0.517,0.783,0.491,0.986,0.707,0.315,0.564,0.524,���쐼,3.2,��
2023/12/26,14:00,0.517,0.781,0.491,0.989,0.704,0.316,0.564,0.526,��,3.5,��
2023/12/26,14:10,0.517,0.782,0.491,0.988,0.704,0.316,0.566,0.526,�쐼,4.5,��
2023/12/26,14:20,0.516,0.782,0.489,0.990,0.705,0.315,0.564,0.525,��쐼,6.8,��
2023/12/26,14:30,0.516,0.782,0.490,0.986,0.706,0.314,0.565,0.526,��쐼,6.3,��
2023/12/26,14:40,0.517,0.781,0.488,0.985,0.708,0.315,0.565,0.527,��쐼,5.7,��
2023/12/26,14:50,0.516,0.781,0.490,0.989,0.708,0.314,0.565,0.528,��,3.8,��
2023/12/26,15:00,0.516,0.781,0.490,0.989,0.706,0.316,0.565,0.527,��쐼,4.6,��
2023/12/26,15:10,0.517,0.784,0.490,0.989,0.705,0.315,0.566,0.530,��,4.5,��
2023/12/26,15:20,0.515,0.785,0.490,0.987,0.705,0.316,0.566,0.529,��쐼,3.5,��
2023/12/26,15:30,0.517,0.787,0.490,0.989,0.705,0.315,0.565,0.527,��,4.9,��
2023/12/26,15:40,0.517,0.785,0.489,0.986,0.705,0.317,0.565,0.528,��,5.3,��
2023/12/26,15:50,0.516,0.786,0.492,0.988,0.704,0.315,0.565,0.530,��,5.5,��
2023/12/26,16:00,0.518,0.785,0.491,0.988,0.706,0.316,0.565,0.529,��,6.8,��
2023/12/26,16:10,0.518,0.786,0.492,0.987,0.705,0.315,0.564,0.529,��,7.5,��
2023/12/26,16:20,0.517,0.785,0.492,0.988,0.706,0.315,0.566,0.529,��,7.3,��
2023/12/26,16:30,0.518,0.788,0.490,0.987,0.705,0.315,0.565,0.528,��,6.9,��
2023/12/26,16:40,0.518,0.783,0.491,0.989,0.707,0.317,0.566,0.528,��,7.6,��
2023/12/26,16:50,0.519,0.787,0.490,0.989,0.706,0.316,0.565,0.528,��,7.9,��
2023/12/26,17:00,0.519,0.786,0.489,0.987,0.707,0.315,0.565,0.529,��,9.6,��
2023/12/26,17:10,0.520,0.787,0.489,0.987,0.705,0.315,0.565,0.529,��,9.4,��
2023/12/26,17:20,0.518,0.786,0.492,0.990,0.707,0.315,0.563,0.528,��,8.9,��
2023/12/26,17:30,0.518,0.786,0.490,0.987,0.705,0.316,0.565,0.529,��,8.0,��
2023/12/26,17:40,0.518,0.786,0.491,0.989,0.706,0.314,0.564,0.527,��,7.4,��
2023/12/26,17:50,0.519,0.783,0.490,0.989,0.706,0.316,0.564,0.527,��쐼,7.6,��
2023/12/26,18:00,0.519,0.786,0.489,0.988,0.704,0.315,0.564,0.529,��쐼,7.0,��
2023/12/26,18:10,0.517,0.784,0.490,0.988,0.706,0.316,0.564,0.527,��쐼,7.5,��
2023/12/26,18:20,0.517,0.786,0.491,0.988,0.705,0.317,0.564,0.528,��쐼,6.7,��
2023/12/26,18:30,0.519,0.784,0.492,0.988,0.707,0.316,0.563,0.528,��쐼,6.6,��
2023/12/26,18:40,0.519,0.784,0.492,0.986,0.707,0.315,0.565,0.527,�쐼,6.3,��
2023/12/26,18:50,0.518,0.784,0.490,0.988,0.707,0.315,0.564,0.528,��쐼,7.4,��
2023/12/26,19:00,0.516,0.786,0.491,0.988,0.706,0.316,0.565,0.528,�쐼,8.4,��
2023/12/26,19:10,0.518,0.785,0.490,0.986,0.706,0.315,0.564,0.527,�쐼,8.6,��
2023/12/26,19:20,0.518,0.785,0.489,0.988,0.707,0.316,0.564,0.527,��쐼,8.9,��
2023/12/26,19:30,0.517,0.784,0.490,0.989,0.709,0.315,0.564,0.527,��쐼,8.2,��
2023/12/26,19:40,0.518,0.787,0.491,0.988,0.707,0.317,0.564,0.527,��쐼,7.6,��
2023/12/26,19:50,0.518,0.786,0.490,0.989,0.707,0.315,0.565,0.528,��,6.2,��
2023/12/26,20:00,0.518,0.786,0.490,0.988,0.705,0.316,0.563,0.527,��,5.6,��
2023/12/26,20:10,0.518,0.786,0.490,0.988,0.707,0.317,0.563,0.528,��,5.8,��
2023/12/26,20:20,0.518,0.785,0.490,0.989,0.706,0.317,0.564,0.527,��,5.4,��
2023/12/26,20:30,0.520,0.786,0.489,0.990,0.706,0.316,0.565,0.527,��,5.3,��
2023/12/26,20:40,0.520,0.784,0.492,0.990,0.708,0.316,0.564,0.527,��쓌,3.5,��
2023/12/26,20:50,0.518,0.786,0.491,0.987,0.707,0.316,0.565,0.527,��쓌,3.0,��
2023/12/26,21:00,0.520,0.787,0.491,0.988,0.707,0.316,0.563,0.527,�쐼,4.0,��
2023/12/26,21:10,0.518,0.785,0.491,0.991,0.706,0.317,0.565,0.528,�쐼,2.3,��
2023/12/26,21:20,0.518,0.786,0.490,0.987,0.708,0.317,0.564,0.527,���쐼,3.7,��
2023/12/26,21:30,0.518,0.786,0.489,0.989,0.706,0.315,0.563,0.527,���쐼,3.9,��
2023/12/26,21:40,0.518,0.785,0.490,0.989,0.705,0.314,0.563,0.528,���쐼,6.6,��
2023/12/26,21:50,0.519,0.785,0.490,0.987,0.706,0.315,0.565,0.528,��,6.8,�L
2023/12/26,22:00,0.519,0.785,0.491,0.989,0.709,0.315,0.564,0.527,�쐼,5.1,��
2023/12/26,22:10,0.517,0.785,0.491,0.988,0.707,0.315,0.564,0.528,���쐼,5.3,��
2023/12/26,22:20,0.517,0.787,0.491,0.990,0.707,0.317,0.564,0.528,���쐼,3.7,��
2023/12/26,22:30,0.518,0.786,0.490,0.988,0.707,0.315,0.564,0.528,��,6.8,��
2023/12/26,22:40,0.517,0.784,0.492,0.990,0.708,0.315,0.563,0.528,���쐼,5.8,��
2023/12/26,22:50,0.518,0.784,0.489,0.989,0.707,0.314,0.564,0.526,���쐼,6.3,��
2023/12/26,23:00,0.518,0.784,0.491,0.990,0.706,0.315,0.565,0.528,���쐼,6.3,��
2023/12/26,23:10,0.518,0.785,0.490,0.987,0.707,0.317,0.564,0.529,���쐼,7.4,��
2023/12/26,23:20,0.518,0.785,0.490,0.990,0.707,0.314,0.564,0.526,���쐼,8.6,��
2023/12/26,23:30,0.516,0.787,0.487,0.989,0.708,0.315,0.564,0.525,���쐼,6.8,��
2023/12/26,23:40,0.518,0.786,0.490,0.987,0.707,0.316,0.564,0.528,���k��,5.4,��
2023/12/26,23:50,0.517,0.784,0.490,0.987,0.706,0.316,0.565,0.528,�k��,6.1,�L
